Weather History for Sidney-Richland, MT

Change the Weather History Date:

Tuesday, October 8, 2013

  Actual Average Record
Temperature  
Mean Temperature 55 °F -  
Max Temperature 66 °F 62 °F 85 °F (1980)
Min Temperature 44 °F 34 °F 15 °F (1959)
Degree Days  
Heating Degree Days 10    
Growing Degree Days 5 (Base 50)    
Moisture  
Dew Point 31 °F    
Average Humidity 42    
Maximum Humidity 76    
Minimum Humidity 24    
Precipitation  
Precipitation 0.00 in - - ()
Sea Level Pressure  
Sea Level Pressure 29.74 in    
Wind  
Wind Speed 7 mph (WNW)    
Max Wind Speed 15 mph    
Max Gust Speed 18 mph    
Visibility 10 miles    
Events      
Averages and records for this station are not official NWS values.
T = Trace of Precipitation, MM = Missing Value Source: NWS Daily Summary

Daily Weather History Graph

Daily Weather History Graph

Search for Another Location

Airport:

Trip Planner

Search our weather history database for the weather conditions in past years. The results will help you decide how hot, cold, wet, or windy it might be!

Date:

Astronomy

Oct. 08, 2013 Rise Set
Actual Time 7:06 AM MDT 6:21 PM MDT
Civil Twilight 6:35 AM MDT 6:52 PM MDT
Nautical Twilight 5:59 AM MDT 7:27 PM MDT
Astronomical Twilight 5:23 AM MDT 8:03 PM MDT
Moon 11:19 AM MDT (10/8) 8:43 PM MDT (10/8)
Length of Visible Light 12h 17m
Length of Day
11h 15m
Waxing Crescent, 16% of the Moon is Illuminated
Oct 8
Waxing Crescent
Oct 11
First Quarter
Oct 18
Full
Oct 26
Last Quarter
Nov 3
New

Hourly Weather History & Observations

Time (MDT) Temp. Windchill Dew Point Humidity Pressure Visibility Wind Dir Wind Speed Gust Speed Precip Events Conditions
12:15 AM 46.4 °F 44.3 °F 35.6 °F 66% 29.61 in 10.0 mi SSW 4.6 mph - N/A   Clear
12:35 AM 48.2 °F - 37.4 °F 66% 29.61 in 10.0 mi South 5.8 mph - N/A   Clear
12:55 AM 46.4 °F 45.2 °F 37.4 °F 71% 29.61 in 10.0 mi SSW 3.5 mph - N/A   Clear
1:15 AM 48.2 °F - 37.4 °F 66% 29.61 in 10.0 mi SSW 3.5 mph - N/A   Clear
1:35 AM 46.4 °F - 35.6 °F 66% 29.62 in 10.0 mi Calm Calm - N/A   Clear
1:55 AM 46.4 °F - 37.4 °F 71% 29.61 in 10.0 mi Calm Calm - N/A   Clear
2:15 AM 44.6 °F 42.2 °F 37.4 °F 76% 29.63 in 10.0 mi NNW 4.6 mph - N/A   Clear
2:35 AM 44.6 °F 42.2 °F 37.4 °F 76% 29.63 in 10.0 mi SSE 4.6 mph - N/A   Clear
2:55 AM 44.6 °F 43.1 °F 37.4 °F 76% 29.63 in 10.0 mi West 3.5 mph - N/A   Clear
3:15 AM 44.6 °F 43.1 °F 37.4 °F 76% 29.62 in 10.0 mi South 3.5 mph - N/A   Clear
3:35 AM 44.6 °F 42.2 °F 37.4 °F 76% 29.63 in 10.0 mi North 4.6 mph - N/A   Clear
3:55 AM 50.0 °F - 35.6 °F 58% 29.63 in 10.0 mi NW 8.1 mph - N/A   Clear
4:15 AM 53.6 °F - 33.8 °F 47% 29.64 in 10.0 mi NW 11.5 mph - N/A   Clear
4:35 AM 53.6 °F - 32.0 °F 44% 29.65 in 10.0 mi WNW 15.0 mph - N/A   Clear
4:55 AM 53.6 °F - 32.0 °F 44% 29.66 in 10.0 mi NW 13.8 mph - N/A   Clear
5:15 AM 51.8 °F - 30.2 °F 44% 29.66 in 10.0 mi NW 10.4 mph - N/A   Clear
5:35 AM 51.8 °F - 30.2 °F 44% 29.67 in 10.0 mi WNW 11.5 mph - N/A   Clear
5:55 AM 51.8 °F - 30.2 °F 44% 29.68 in 10.0 mi NW 12.7 mph - N/A   Clear
6:15 AM 51.8 °F - 30.2 °F 44% 29.69 in 10.0 mi NW 11.5 mph - N/A   Clear
6:35 AM 51.8 °F - 30.2 °F 44% 29.69 in 10.0 mi NW 11.5 mph - N/A   Clear
6:55 AM 48.2 °F - 30.2 °F 50% 29.69 in 10.0 mi NW 6.9 mph - N/A   Clear
7:15 AM 46.4 °F - 30.2 °F 53% 29.70 in 10.0 mi Calm Calm - N/A   Clear
7:35 AM 46.4 °F - 32.0 °F 57% 29.71 in 10.0 mi Calm Calm - N/A   Clear
7:55 AM 46.4 °F - 32.0 °F 57% 29.71 in 10.0 mi Calm Calm - N/A   Clear
8:15 AM 51.8 °F - 32.0 °F 47% 29.72 in 10.0 mi NW 9.2 mph - N/A   Clear
8:35 AM 55.4 °F - 30.2 °F 38% 29.73 in 10.0 mi NW 10.4 mph - N/A   Clear
8:55 AM 55.4 °F - 32.0 °F 41% 29.73 in 10.0 mi NW 9.2 mph - N/A   Clear
9:15 AM 55.4 °F - 30.2 °F 38% 29.74 in 10.0 mi NW 12.7 mph - N/A   Clear
9:55 AM 57.2 °F - 30.2 °F 36% 29.75 in 10.0 mi NW 10.4 mph 16.1 mph N/A   Clear
10:15 AM 60.8 °F - 32.0 °F 34% 29.75 in 10.0 mi NW 15.0 mph 18.4 mph N/A   Clear
10:55 AM 60.8 °F - 30.2 °F 31% 29.76 in 10.0 mi NNW 11.5 mph - N/A   Clear
11:15 AM 62.6 °F - 30.2 °F 30% 29.76 in 10.0 mi NW 12.7 mph - N/A   Clear
11:35 AM 60.8 °F - 30.2 °F 31% 29.75 in 10.0 mi NW 12.7 mph - N/A   Clear
11:55 AM 62.6 °F - 30.2 °F 30% 29.74 in 10.0 mi NW 13.8 mph - N/A   Clear
12:15 PM 64.4 °F - 30.2 °F 28% 29.74 in 10.0 mi WNW 11.5 mph 17.3 mph N/A   Clear
12:35 PM 64.4 °F - 30.2 °F 28% 29.74 in 10.0 mi WNW 15.0 mph - N/A   Clear
12:55 PM 64.4 °F - 30.2 °F 28% 29.73 in 10.0 mi WNW 12.7 mph 16.1 mph N/A   Clear
1:15 PM 66.2 °F - 30.2 °F 26% 29.73 in 10.0 mi NNW 12.7 mph 17.3 mph N/A   Clear
1:35 PM 66.2 °F - 30.2 °F 26% 29.72 in 10.0 mi West 11.5 mph - N/A   Clear
1:55 PM 66.2 °F - 30.2 °F 26% 29.72 in 10.0 mi West 11.5 mph - N/A   Clear
2:15 PM 66.2 °F - 30.2 °F 26% 29.73 in 10.0 mi West 9.2 mph - N/A   Clear
2:35 PM 66.2 °F - 30.2 °F 26% 29.73 in 10.0 mi West 11.5 mph - N/A   Clear
2:55 PM 66.2 °F - 28.4 °F 24% 29.73 in 10.0 mi WNW 12.7 mph 16.1 mph N/A   Clear
3:15 PM 66.2 °F - 28.4 °F 24% 29.73 in 10.0 mi West 13.8 mph - N/A   Clear
3:35 PM 66.2 °F - 28.4 °F 24% 29.74 in 10.0 mi West 10.4 mph - N/A   Clear
3:55 PM 66.2 °F - 28.4 °F 24% 29.74 in 10.0 mi West 8.1 mph - N/A   Clear
4:15 PM 64.4 °F - 28.4 °F 26% 29.75 in 10.0 mi WNW 10.4 mph - N/A   Clear
4:35 PM 64.4 °F - 28.4 °F 26% 29.75 in 10.0 mi WNW 10.4 mph - N/A   Clear
4:55 PM 64.4 °F - 28.4 °F 26% 29.76 in 10.0 mi WNW 9.2 mph - N/A   Clear
5:15 PM 64.4 °F - 28.4 °F 26% 29.76 in 10.0 mi West 5.8 mph - N/A   Clear
5:35 PM 62.6 °F - 28.4 °F 27% 29.77 in 10.0 mi WNW 6.9 mph - N/A   Clear
5:55 PM 62.6 °F - 28.4 °F 27% 29.77 in 10.0 mi West 3.5 mph - N/A   Clear
6:15 PM 59.0 °F - 28.4 °F 31% 29.78 in 7.0 mi WNW 4.6 mph - N/A   Clear
6:35 PM 57.2 °F - 28.4 °F 33% 29.79 in 10.0 mi West 6.9 mph - N/A   Clear
6:55 PM 57.2 °F - 28.4 °F 33% 29.81 in 10.0 mi West 9.2 mph - N/A   Clear
7:15 PM 55.4 °F - 28.4 °F 36% 29.81 in 10.0 mi NW 8.1 mph - N/A   Clear
7:35 PM 55.4 °F - 28.4 °F 36% 29.82 in 10.0 mi WNW 6.9 mph - N/A   Clear
7:55 PM 55.4 °F - 28.4 °F 36% 29.84 in 10.0 mi WNW 8.1 mph - N/A   Partly Cloudy
8:15 PM 55.4 °F - 28.4 °F 36% 29.85 in 10.0 mi WNW 8.1 mph - N/A   Mostly Cloudy
8:35 PM 55.4 °F - 28.4 °F 36% 29.86 in 10.0 mi NW 6.9 mph - N/A   Overcast
8:55 PM 55.4 °F - 28.4 °F 36% 29.87 in 10.0 mi WNW 6.9 mph - N/A   Scattered Clouds
9:15 PM 55.4 °F - 28.4 °F 36% 29.88 in 10.0 mi WNW 6.9 mph - N/A   Partly Cloudy
9:35 PM 55.4 °F - 28.4 °F 36% 29.89 in 10.0 mi WNW 6.9 mph - N/A   Mostly Cloudy
9:55 PM 55.4 °F - 28.4 °F 36% 29.89 in 10.0 mi WNW 5.8 mph - N/A   Overcast
10:15 PM 55.4 °F - 28.4 °F 36% 29.89 in 10.0 mi West 6.9 mph - N/A   Mostly Cloudy
10:35 PM 53.6 °F - 35.6 °F 51% 29.89 in 10.0 mi SE 3.5 mph - N/A   Mostly Cloudy
10:55 PM 51.8 °F - 33.8 °F 50% 29.90 in 10.0 mi South 3.5 mph - N/A   Mostly Cloudy
11:15 PM 48.2 °F - 30.2 °F 50% 29.91 in 10.0 mi Calm Calm - N/A   Scattered Clouds
11:35 PM 48.2 °F - 30.2 °F 50% 29.91 in 10.0 mi WNW 4.6 mph - N/A   Partly Cloudy
11:55 PM 48.2 °F - 28.4 °F 46% 29.92 in 10.0 mi West 4.6 mph - N/A   Clear